Temperature
19 20 20 20 21 21 20 20 20 20 20 21 20 20 20 20 19 18 17 17 16 16 15 15 15 15 14 14 14 14 13 13 13 13 13 13 13 13 13 13 13 13 13 12
19 20 20 20 20 20 20 20 20 20 20 21 21 20 20 19 18 18 17 16 16 16 15 15 14 14 14 14 14 13 13 13 13 13 13 13 13 12 12 12 12 12 12 12
17 19 19 19 20 20 20 20 20 19 20 20 20 20 19 19 18 17 17 16 16 15 15 15 14 14 14 13 13 13 13 13 13 13 13 12 12 12 12 12 12 12 11 12
17 17 17 19 20 20 20 20 20 20 20 20 19 19 19 18 17 17 16 16 15 15 15 14 14 14 13 13 13 13 13 12 12 12 12 12 12 12 12 11 11 11 11 11
16 16 17 19 19 19 19 19 20 19 19 19 19 18 18 17 17 16 16 15 15 15 14 14 14 13 13 13 12 12 12 12 12 12 12 12 12 11 11 11 11 11 11 11
16 15 16 17 18 19 18 17 18 18 18 18 18 16 16 16 16 15 15 15 14 14 14 13 13 13 13 12 12 12 12 12 12 12 11 11 11 11 11 11 11 11 10 10
15 15 16 17 17 18 16 16 17 17 17 17 16 16 16 15 15 15 14 14 14 13 13 13 13 12 12 12 12 12 11 11 11 11 11 11 11 11 11 10 10 10 10 10
16 15 15 17 17 16 16 17 16 16 16 16 15 15 14 14 14 14 14 13 13 13 12 12 12 12 12 11 11 11 11 11 11 11 11 11 11 10 10 10 10 10 10 9
16 15 16 16 16 16 15 16 16 15 15 15 14 14 13 13 13 13 13 13 12 12 12 12 12 11 11 11 11 11 11 10 10 10 10 10 10 10 10 10 10 10 9 9
15 16 16 15 15 15 15 15 15 14 14 14 13 13 13 13 12 13 12 12 12 12 11 11 11 11 11 11 11 10 10 10 10 10 10 10 10 9 10 9 9 9 9 9
15 15 15 15 15 14 14 14 14 13 13 13 13 12 12 12 12 12 12 12 11 11 11 11 10 10 10 10 10 10 10 10 10 10 9 9 9 9 9 9 9 9 9 9
14 15 15 14 14 14 13 13 13 13 12 12 12 12 12 11 11 11 11 11 11 11 10 10 10 10 10 10 9 9 9 9 9 9 9 9 9 8 8 8 8 8 8 8
14 13 13 13 13 13 13 12 12 12 12 12 11 11 11 11 11 11 11 10 10 10 10 10 10 9 9 9 9 9 9 8 8 8 8 8 8 8 8 8 8 8 8 8
13 13 13 13 12 12 12 12 12 11 11 11 11 10 10 10 10 10 10 10 10 10 9 9 9 9 9 9 9 8 8 8 8 8 8 8 8 8 8 8 8 7 7 7
12 12 12 12 12 11 11 11 11 11 10 10 10 10 10 10 9 9 9 9 9 9 9 9 9 9 8 8 8 8 8 8 8 8 8 7 7 7 7 7 7 7 7 7
12 12 11 11 11 11 11 10 10 10 10 10 10 9 9 9 9 9 9 9 9 9 8 8 8 8 8 8 8 8 8 7 7 7 7 7 7 7 7 7 6 6 6 6
11 11 11 10 10 10 10 10 10 9 9 9 9 9 8 8 8 8 8 8 8 8 8 8 8 8 8 8 7 7 7 7 7 7 7 7 7 6 6 6 6 6 6 6
10 10 10 10 10 10 9 9 9 9 9 8 8 8 8 8 7 7 7 7 8 8 8 8 8 8 8 7 7 7 7 7 6 6 6 6 6 6 6 6 6 5 5 5
9 9 9 9 9 9 9 9 8 8 8 8 8 7 7 7 7 7 7 7 7 7 7 7 7 7 7 7 7 6 6 6 6 6 6 6 6 6 6 5 5 5 5 5
9 9 8 8 8 8 8 8 8 8 8 7 7 7 7 7 7 7 6 6 6 6 6 6 6 7 7 6 6 6 6 5 5 5 5 5 5 5 5 5 5 5 4 4
8 8 8 8 8 8 8 7 7 7 7 7 7 7 7 6 6 6 6 6 6 6 6 6 6 6 6 6 6 5 5 5 5 4 4 4 5 5 4 4 4 4 4 4
8 8 8 7 7 7 7 7 7 7 7 7 7 6 6 6 6 6 5 5 5 5 5 5 5 5 5 5 5 5 5 4 4 4 4 4 4 4 4 4 4 4 4 3
8 7 7 7 7 7 7 7 7 7 7 6 6 6 6 6 5 5 5 5 5 5 5 5 5 5 5 5 4 4 4 4 4 4 4 3 3 3 3 3 3 3 3 3
7 7 7 7 7 7 7 7 6 6 6 6 6 6 5 5 5 5 5 5 4 4 4 4 4 4 4 4 4 4 3 3 3 3 3 3 3 3 3 3 3 3 3 3
7 7 7 7 7 6 6 6 6 6 5 5 5 5 5 5 4 4 4 4 4 4 4 4 3 3 3 3 3 3 3 3 3 3 2 2 2 2 2 2 2 2 2 2
6 6 6 6 6 6 6 5 5 5 5 5 4 4 4 4 4 4 4 3 3 3 3 3 3 3 3 2 2 2 2 2 2 2 2 2 2 2 2 2 2 2 2 2
6 6 6 5 5 5 5 5 4 4 4 4 4 4 4 3 3 3 3 3 3 2 2 2 2 2 2 2 2 1 1 1 1 1 1 1 1 1 1 1 1 1 1 1
Wind_Speed
9 9 8 8 9 8 9 9 10 8 6 4 1 1 2 1 2 3 3 2 2 2 2 2 2 2 2 2 2 2 3 3 3 3 2 1 1 2 1 1 1 1 1 1
10 10 9 10 11 11 11 10 11 10 8 3 2 0 1 2 2 2 2 2 1 1 2 2 2 2 2 2 2 2 3 3 3 3 3 2 2 2 2 2 1 2 1 1
8 8 9 10 9 10 9 9 9 9 6 1 2 2 1 1 2 2 2 2 2 1 1 1 2 2 2 2 2 2 2 2 2 3 2 2 3 3 3 2 2 2 2 2
7 7 9 4 3 3 5 6 5 4 4 2 2 2 1 1 2 2 1 1 0 0 0 0 1 1 0 1 2 2 2 3 3 2 2 2 2 3 3 2 2 3 2 3
5 7 8 6 2 2 4 6 4 4 4 2 3 2 1 2 3 2 1 1 1 1 1 1 1 1 0 1 1 1 1 1 1 2 2 3 3 3 3 2 2 3 3 3
6 7 6 1 5 5 4 4 5 5 4 3 2 2 1 3 3 3 2 2 2 2 1 1 1 1 0 1 1 1 1 1 1 2 2 3 4 3 3 2 2 3 2 3
8 8 5 2 3 3 2 2 5 5 5 4 3 3 2 3 2 2 2 2 2 2 1 1 1 0 1 1 1 0 1 1 1 1 2 4 4 3 3 3 2 2 2 2
6 7 5 2 2 2 3 4 5 5 6 5 4 3 2 2 2 2 1 1 1 0 1 0 0 0 1 1 1 1 1 1 1 2 2 3 3 3 3 3 3 2 2 2
3 2 1 2 2 4 5 5 5 5 4 4 4 3 2 2 2 2 1 0 0 0 1 0 0 1 1 1 1 1 1 0 0 1 2 3 3 3 3 2 3 2 2 2
5 4 2 1 2 3 4 6 5 5 5 4 4 3 3 3 3 2 2 1 0 1 1 1 1 1 1 1 1 1 1 1 1 1 1 2 2 3 3 3 3 2 2 2
8 6 4 3 2 3 4 5 5 5 5 4 4 4 3 3 3 3 2 1 1 2 2 2 2 2 2 1 1 1 2 1 1 1 1 1 1 1 2 3 4 4 3 2
6 5 5 4 4 4 3 4 4 5 5 4 4 4 4 3 3 2 2 2 2 2 2 2 3 3 2 1 1 1 1 1 1 1 1 2 2 1 1 2 3 3 4 3
6 6 6 5 5 4 4 4 4 4 4 4 4 4 4 3 3 2 2 2 2 2 3 3 2 2 1 1 1 2 2 1 1 1 1 2 2 2 2 1 1 2 3 3
4 5 6 5 5 4 4 4 4 4 4 3 3 3 3 3 3 3 3 2 2 2 3 2 2 2 1 1 1 2 2 2 1 2 2 2 2 2 3 3 3 2 2 4
5 5 5 4 4 3 3 3 3 4 4 3 3 3 3 3 4 3 3 2 2 2 2 2 2 2 1 2 2 2 1 1 1 1 1 2 2 2 2 3 2 2 1 2
5 4 4 4 4 4 4 3 3 3 4 4 3 3 3 3 4 3 3 2 2 3 2 2 2 2 1 1 2 2 1 2 2 2 2 2 2 3 3 3 3 2 2 2
5 5 4 4 4 5 4 3 3 3 3 3 3 4 3 3 3 3 3 3 3 3 2 2 2 1 1 1 1 1 1 2 3 2 2 2 2 3 3 3 3 2 2 3
4 4 4 4 4 4 3 2 2 3 3 3 3 3 3 3 3 3 4 4 3 3 3 2 2 1 0 0 1 1 1 1 1 1 1 1 2 2 2 3 3 3 2 2
3 2 2 2 3 3 3 2 2 2 3 3 3 3 3 3 3 4 4 4 3 3 3 3 4 3 1 1 1 1 1 1 1 1 1 1 1 2 2 3 3 3 2 2
2 1 2 2 2 2 3 2 2 2 2 2 3 3 3 3 3 3 3 2 2 2 3 3 3 2 1 1 1 1 1 1 1 1 1 1 1 2 2 2 2 3 3 3
2 2 2 2 2 2 3 3 2 3 3 2 3 3 3 3 3 3 2 2 2 3 3 4 3 2 2 2 2 1 1 1 1 1 1 1 1 1 1 2 2 2 2 2
2 2 2 3 3 3 3 2 3 3 2 2 3 2 2 2 3 2 2 1 1 3 3 2 2 3 4 2 1 1 1 1 1 1 1 1 1 1 1 1 2 2 2 2
3 3 3 3 4 3 3 3 3 3 2 2 2 2 2 2 2 2 2 1 1 3 3 2 3 5 5 1 1 1 0 0 0 0 0 0 1 1 1 1 1 1 1 1
3 3 3 3 3 3 3 3 3 2 1 1 1 2 2 1 1 1 1 1 2 3 2 2 4 4 3 1 1 1 1 1 0 0 0 0 0 1 1 1 1 1 1 1
3 3 3 3 3 2 2 2 2 1 1 1 1 1 1 1 1 1 1 1 1 2 1 2 4 3 2 1 1 1 1 1 1 1 0 0 0 0 0 1 1 1 1 1
3 3 2 3 2 1 1 1 1 1 1 1 1 1 1 1 1 1 1 1 1 2 1 1 1 1 1 1 1 1 1 1 1 1 1 0 0 0 0 1 1 1 1 1
2 2 2 2 1 0 1 1 1 1 1 1 1 1 1 1 1 1 2 1 1 1 1 1 1 0 1 1 1 0 1 1 1 1 1 1 1 1 1 1 1 1 1 1
Wind_Direction
289 290 289 282 270 259 255 259 266 280 280 275 268 127 119 123 106 108 106 100 109 126 125 153 154 156 166 174 170 163 163 180 195 205 204 201 173 184 183 151 167 161 158 173
284 277 270 271 266 257 256 259 264 272 275 278 313 328 126 131 114 117 120 127 119 131 142 163 188 183 185 191 191 184 176 185 200 199 189 180 179 168 154 157 175 151 148 124
276 280 282 264 261 251 249 250 256 267 277 271 264 267 220 113 108 138 130 146 162 191 142 187 195 192 203 203 211 201 185 185 200 190 175 181 173 157 159 170 183 161 160 149
280 279 258 259 305 299 281 278 276 288 314 318 311 331 41 71 107 92 79 112 148 203 148 65 56 54 83 215 214 202 192 185 187 175 173 174 166 168 172 170 177 167 171 162
265 269 273 269 295 323 292 283 313 302 308 349 6 331 355 47 56 65 65 69 46 20 5 30 20 45 22 227 200 175 171 180 156 160 169 172 170 172 162 156 174 168 176 177
255 262 263 303 25 5 317 278 11 358 346 358 340 292 351 43 33 29 53 60 49 23 353 346 20 50 287 227 203 208 170 166 148 148 164 173 169 169 157 162 177 164 167 169
249 258 263 347 18 344 266 357 18 357 346 349 331 344 359 13 12 15 40 60 57 28 351 336 25 29 287 267 252 282 102 128 149 155 172 164 157 151 147 164 169 170 172 177
243 248 255 37 15 332 349 360 357 352 351 351 357 2 0 360 351 345 27 60 59 350 303 326 352 310 280 285 352 65 74 139 158 158 162 152 146 155 158 166 162 173 177 187
260 243 13 36 357 358 347 338 349 353 350 344 336 338 331 320 310 292 281 286 314 279 273 264 266 282 265 278 76 94 96 292 218 162 151 156 164 170 166 166 167 178 188 197
274 262 267 288 327 339 341 331 340 343 337 333 319 316 311 305 296 285 272 233 215 249 264 277 287 285 251 229 163 173 203 222 222 172 148 161 162 167 166 178 178 185 196 205
273 278 284 275 301 313 315 318 330 337 334 328 320 309 305 297 292 294 285 254 238 248 251 253 264 261 245 239 192 225 232 235 214 179 158 157 165 181 184 185 177 182 195 197
276 305 303 311 345 336 317 313 318 320 318 322 311 304 300 293 293 293 294 284 271 267 262 251 245 249 230 200 193 221 235 242 224 204 168 175 172 161 118 166 157 175 188 196
290 313 311 312 325 332 320 313 309 308 309 314 314 313 313 304 301 297 295 292 278 276 273 262 248 252 242 213 206 223 235 230 207 209 212 211 203 189 191 188 176 191 205 208
298 298 294 303 312 322 316 316 319 318 320 324 321 315 312 306 301 294 288 284 282 274 272 266 257 257 236 216 217 233 237 223 215 213 211 220 223 220 206 195 193 213 223 210
279 280 287 302 309 309 318 323 316 312 316 319 316 311 309 309 304 296 298 305 297 286 277 269 257 263 235 215 218 230 231 224 207 222 218 219 222 227 218 199 191 192 184 190
286 283 282 283 286 286 279 283 286 291 305 308 308 311 311 308 306 308 310 306 288 286 283 275 263 259 247 219 210 216 211 228 235 223 222 213 219 223 212 194 189 192 200 194
270 271 271 271 276 280 277 273 281 287 295 302 315 322 320 316 314 321 322 317 303 297 302 313 313 284 234 220 202 210 201 208 225 226 220 214 223 218 204 191 192 198 207 197
265 276 286 286 284 283 285 287 298 302 302 313 324 324 321 319 319 321 317 314 320 335 344 351 345 332 337 200 189 182 196 206 216 230 229 214 226 215 201 193 198 209 210 199
269 274 289 301 311 310 307 306 304 307 320 325 319 316 318 318 317 313 311 315 328 331 342 356 339 338 342 324 296 184 192 216 221 251 256 231 226 211 200 200 204 208 205 200
262 261 257 264 283 290 298 305 306 306 304 295 296 303 308 313 314 309 311 323 344 344 349 350 337 337 339 328 325 199 188 216 231 242 248 234 234 226 216 211 209 211 213 212
261 267 271 269 271 274 273 280 283 284 286 279 284 292 300 310 317 320 321 331 359 2 350 345 349 339 312 302 262 229 207 222 230 229 240 236 239 240 226 215 218 216 214 219
256 257 264 272 273 272 263 257 266 270 269 274 283 291 299 306 317 322 316 325 0 359 357 347 342 331 329 317 251 240 219 226 229 217 235 250 250 250 243 234 228 223 216 220
255 260 263 264 268 276 278 271 270 268 265 272 280 283 284 287 285 288 298 335 16 347 347 343 340 335 335 346 344 329 315 294 295 288 271 283 291 287 277 276 257 233 217 226
266 269 262 262 262 261 268 283 286 285 285 280 274 286 286 284 296 306 314 340 348 338 342 337 332 331 335 356 356 349 343 326 319 333 356 360 340 320 314 307 306 292 266 263
270 278 279 277 273 272 277 283 295 308 298 284 287 299 296 290 290 308 308 315 339 339 336 309 303 307 323 343 3 2 358 346 340 11 46 17 303 309 310 299 299 304 295 278
258 267 267 266 273 287 293 287 269 257 268 286 293 333 352 7 7 348 329 323 345 322 314 275 270 273 297 334 358 8 9 359 353 348 345 348 347 329 307 301 311 301 294 293
272 272 273 280 277 265 282 280 281 286 286 290 319 353 2 354 350 346 332 333 337 313 310 313 313 313 315 326 341 1 32 27 12 10 16 9 360 352 338 326 314 315 334 331
Height
1469 1466 1465 1465 1465 1464 1467 1469 1473 1470 1468 1466 1466 1467 1469 1471 1473 1474 1476 1478 1479 1480 1481 1482 1483 1484 1485 1485 1487 1488 1488 1489 1490 1492 1493 1494 1494 1495 1496 1497 1499 1499 1500 1501
1471 1465 1464 1465 1463 1463 1464 1465 1466 1466 1466 1463 1464 1466 1468 1470 1472 1474 1476 1477 1478 1479 1479 1480 1481 1482 1483 1483 1484 1485 1486 1487 1488 1489 1490 1491 1492 1492 1494 1495 1495 1496 1498 1499
1475 1466 1465 1468 1461 1460 1460 1459 1462 1466 1464 1462 1464 1465 1467 1469 1471 1473 1474 1475 1477 1477 1478 1479 1480 1480 1480 1481 1482 1483 1483 1484 1485 1486 1487 1487 1488 1489 1491 1492 1493 1494 1495 1496
1475 1474 1479 1465 1454 1455 1458 1458 1458 1459 1460 1461 1463 1465 1466 1468 1469 1471 1473 1474 1475 1475 1476 1477 1478 1478 1478 1479 1479 1480 1480 1481 1482 1483 1483 1484 1485 1486 1487 1489 1489 1491 1492 1493
1477 1478 1471 1461 1456 1457 1461 1461 1459 1459 1460 1462 1463 1465 1466 1468 1469 1470 1471 1472 1473 1474 1474 1475 1475 1475 1476 1476 1477 1477 1478 1478 1479 1479 1480 1481 1482 1483 1484 1486 1487 1488 1490 1491
1475 1479 1478 1466 1459 1458 1461 1465 1462 1461 1461 1462 1464 1467 1468 1468 1469 1469 1470 1470 1471 1472 1472 1473 1473 1473 1474 1474 1474 1474 1475 1475 1476 1476 1477 1478 1479 1480 1482 1483 1484 1486 1487 1489
1474 1476 1469 1463 1461 1460 1470 1470 1463 1463 1464 1464 1465 1467 1468 1467 1468 1468 1468 1469 1469 1470 1470 1471 1471 1471 1471 1472 1472 1472 1472 1473 1473 1474 1474 1476 1477 1478 1479 1481 1482 1484 1485 1486
1471 1475 1474 1463 1463 1465 1467 1465 1465 1465 1465 1465 1465 1465 1465 1466 1466 1467 1467 1467 1467 1468 1468 1469 1469 1469 1469 1469 1469 1470 1470 1470 1470 1471 1472 1473 1474 1476 1477 1478 1480 1481 1482 1483
1467 1469 1464 1463 1464 1465 1465 1465 1465 1465 1465 1465 1465 1465 1465 1465 1465 1465 1466 1465 1466 1466 1466 1466 1466 1466 1467 1467 1467 1467 1467 1467 1468 1469 1470 1471 1472 1473 1474 1475 1477 1478 1480 1480
1464 1462 1462 1463 1464 1464 1465 1465 1465 1465 1465 1464 1464 1464 1463 1463 1463 1463 1463 1463 1463 1463 1463 1463 1463 1464 1464 1464 1464 1464 1465 1465 1466 1466 1467 1468 1469 1470 1471 1472 1474 1475 1476 1477
1463 1461 1461 1461 1462 1463 1463 1463 1463 1463 1463 1463 1462 1462 1461 1461 1461 1461 1461 1461 1461 1461 1461 1460 1460 1461 1461 1461 1461 1461 1462 1462 1463 1463 1464 1465 1466 1467 1468 1469 1470 1472 1473 1473
1463 1461 1461 1461 1461 1461 1462 1462 1462 1462 1462 1461 1461 1460 1459 1459 1459 1458 1458 1458 1458 1458 1458 1457 1457 1458 1458 1458 1458 1458 1458 1459 1459 1460 1461 1461 1462 1462 1464 1465 1467 1468 1469 1470
1460 1460 1460 1460 1460 1460 1460 1460 1461 1460 1460 1459 1459 1458 1457 1456 1456 1456 1455 1455 1455 1454 1454 1454 1454 1454 1454 1455 1455 1455 1455 1456 1456 1457 1457 1458 1458 1458 1459 1461 1463 1464 1465 1466
1458 1459 1458 1459 1459 1459 1459 1458 1458 1458 1458 1457 1457 1456 1455 1454 1453 1453 1452 1452 1452 1451 1451 1451 1450 1450 1450 1451 1451 1452 1452 1453 1453 1453 1454 1454 1455 1455 1456 1457 1458 1459 1461 1462
1456 1456 1457 1457 1457 1457 1457 1457 1457 1456 1456 1455 1454 1454 1453 1452 1451 1451 1450 1449 1449 1448 1448 1447 1447 1446 1447 1447 1447 1448 1449 1449 1449 1450 1450 1451 1451 1452 1453 1453 1454 1455 1456 1457
1454 1454 1454 1454 1454 1454 1454 1454 1455 1454 1454 1453 1452 1452 1451 1450 1449 1448 1447 1447 1446 1445 1444 1444 1443 1443 1444 1444 1444 1444 1445 1445 1446 1446 1446 1447 1448 1448 1449 1449 1450 1451 1452 1453
1451 1451 1451 1451 1451 1452 1452 1452 1452 1452 1452 1451 1450 1449 1448 1447 1446 1445 1445 1444 1444 1443 1442 1441 1440 1440 1440 1440 1441 1441 1441 1441 1442 1442 1443 1443 1444 1444 1445 1445 1446 1447 1448 1449
1448 1448 1449 1449 1449 1449 1449 1449 1449 1449 1449 1448 1448 1447 1446 1445 1444 1443 1442 1442 1441 1440 1439 1438 1437 1437 1437 1437 1438 1438 1438 1438 1438 1438 1439 1439 1440 1440 1441 1441 1442 1443 1444 1445
1445 1445 1446 1446 1446 1446 1446 1446 1446 1446 1446 1445 1445 1444 1444 1443 1442 1441 1440 1439 1438 1437 1436 1435 1434 1434 1434 1434 1435 1435 1435 1435 1435 1436 1436 1436 1436 1437 1437 1438 1439 1440 1441 1441
1442 1442 1443 1443 1443 1444 1444 1444 1444 1444 1443 1443 1443 1442 1441 1441 1440 1439 1438 1437 1436 1435 1434 1433 1432 1431 1431 1431 1432 1432 1432 1432 1433 1433 1433 1433 1433 1433 1434 1435 1436 1436 1437 1437
1440 1440 1440 1441 1441 1441 1441 1441 1441 1441 1441 1441 1440 1440 1439 1438 1438 1437 1435 1434 1433 1433 1431 1430 1429 1428 1428 1428 1428 1429 1429 1429 1430 1430 1429 1429 1430 1430 1431 1432 1432 1432 1433 1433
1437 1438 1438 1438 1439 1439 1439 1439 1439 1438 1438 1438 1437 1437 1436 1436 1435 1434 1433 1432 1431 1430 1429 1428 1427 1426 1426 1426 1426 1426 1426 1426 1426 1426 1426 1426 1426 1427 1427 1428 1428 1428 1428 1429
1435 1435 1435 1435 1436 1436 1436 1436 1436 1435 1435 1435 1434 1434 1433 1433 1432 1431 1430 1430 1429 1428 1427 1426 1424 1424 1423 1423 1423 1423 1423 1423 1423 1423 1423 1424 1424 1424 1424 1424 1425 1425 1425 1425
1432 1432 1432 1433 1433 1433 1433 1433 1433 1432 1432 1432 1432 1431 1431 1430 1429 1429 1428 1427 1426 1425 1424 1423 1422 1421 1420 1420 1420 1420 1420 1420 1420 1421 1421 1421 1421 1421 1421 1421 1421 1421 1421 1421
1429 1429 1430 1430 1430 1429 1429 1429 1429 1429 1429 1429 1428 1428 1428 1427 1426 1426 1425 1424 1424 1422 1421 1421 1420 1419 1418 1417 1417 1417 1417 1418 1418 1418 1418 1418 1418 1417 1417 1417 1417 1417 1417 1417
1426 1426 1426 1427 1427 1427 1426 1426 1426 1426 1426 1426 1425 1425 1425 1424 1424 1423 1422 1421 1421 1420 1419 1418 1417 1417 1416 1415 1415 1415 1415 1415 1415 1415 1415 1415 1414 1414 1414 1414 1413 1413 1413 1413
1423 1423 1423 1423 1423 1423 1423 1423 1423 1423 1423 1423 1422 1422 1422 1421 1421 1420 1420 1419 1418 1417 1417 1416 1415 1415 1414 1414 1413 1413 1413 1412 1412 1412 1412 1411 1411 1411 1411 1410 1410 1410 1410 1410